Notices

What's New in latest Release from April 7th, 2021:

- Updated Glossary, including Speed of Maximum Gust, and Total Hourly Precipitation

- Updated national and regional climate services offices contacts and prices information

- Addition of station inventory lists for 1981-2010, 1971-2000, and 1961-1990 Normals.

If you haven't already, please take our survey and provide feedback about our website: https://eccc.sondage-survey.ca/f/LanguageSelection.aspx?s=442ca660-fcf1-47c0-95a9-59707d6fd709

Hourly Data Report for April 08, 2016

MIRAMICHI RCS
NEW BRUNSWICK

47°00'34.000" N
65°27'54.000" W
33.00 m
8100989
71744
ACQ

Download Data

Hourly Data (April 2016)
Hourly Data Report for April 8, 2016
TIME
LST
Temp Definition
°C
Dew Point Definition
°C
Rel Hum Definition
%
Precip. Amount Definition
mm

Wind Dir Definition
10's deg

Wind Spd Definition
km/h
Visibility Definition
km
Stn Press Definition
kPa
Hmdx Definition


Wind Chill Definition


Weather Definition


00:00 9.4 5.8 78 0.0 15 25   100.24     LegendNANA
01:00 8.4 5.5 82 0.0 14 23   100.11     LegendNANA
02:00 8.3 6.4 88 0.2 13 22   99.89     LegendNANA
03:00 9.2 7.4 89 0.5 13 24   99.64     LegendNANA
04:00 10.2 8.4 89 0.6 14 34   99.40     LegendNANA
05:00 10.8 8.8 88 0.6 16 38   99.28     LegendNANA
06:00 10.4 8.7 89 0.2 16 32   99.31     LegendNANA
07:00 10.5 8.8 89 0.0 17 27   99.36     LegendNANA
08:00 10.2 8.9 92 0.2 17 22   99.38     LegendNANA
09:00 10.0 8.8 92 0.0 18 18   99.38     LegendNANA
10:00 10.3 8.7 90 0.0 18 24   99.43     LegendNANA
11:00 10.2 8.2 87 0.0 18 22   99.48     LegendNANA
12:00 10.4 8.2 86 0.0 18 23   99.52     LegendNANA
13:00 10.4 8.6 89 0.0 17 23   99.58     LegendNANA
14:00 11.7 8.0 78 0.0 19 32   99.52     LegendNANA
15:00 12.9 7.4 69 0.0 18 33   99.54     LegendNANA
16:00 13.4 4.9 56 0.0 19 35   99.51     LegendNANA
17:00 13.2 4.7 56 0.0 18 31   99.57     LegendNANA
18:00 11.9 4.4 60 0.0 18 25   99.66     LegendNANA
19:00 10.5 3.6 62 0.0 18 24   99.70     LegendNANA
20:00 9.2 3.0 65 0.0 17 23   99.74     LegendNANA
21:00 8.3 2.1 65 0.0 18 21   99.76     LegendNANA
22:00 7.2 1.8 69 0.0 18 13   99.75     LegendNANA
23:00 6.0 1.6 74 0.0 18 11   99.74     LegendNANA

Notes on Data Quality.

Legend

  • E = Estimated
  • M = Missing
  • NA = Not Available*
  • [empty] = Indicates an unobserved value
Date modified: